Showing default

TIANQI-6, 46810

Orbit data source: Space-Track

TIANQI-6, 46810 is a payload satellite owned by Guodian Gaokeji (CN) in LEO that was launched on Mon, 26 Oct 2020 UTC via a CHANG ZHENG 2C launch vehicle from the Xichang Space Center, China (XSC). Payload-class satellites include a variety of spacecraft equipped with specific instruments for various scientific and technological missions. These include communications satellites like Starlink; space stations such as the ISS; scientific satellites like the Hubble; Earth observation satellites from companies like Planet Labs, Umbra, and HawkEye 360; GPS; miniature CubeSats for education and research; and military/defense satellites.

Loading next visibility...
Identifier
46810, 2020-076D
Orbit
LEO
Country
Flag of CNCN / PRC
Related business
Manufacturer
Shanghai ASES
Mission
Operational Commercial Communications
Bus & Motor
STARLIGHTB, Unknown motor
Mass
40 kg wet, ~40 kg dry
Launch date (UTC)
2020-10-26 (5 years ago)
Launch vehicle
CHANG ZHENG 2C
Launch site
Xichang Space Center, China (XSC)
Object type
Payload
Rocket body
Debris
Shape & HBR
Box, Unknown HBR
Radar Cross Section
0.195 m², Medium (>0.1 m² and < 1m²)

Expand to show TLE details & history
Last TLE update: 23 hours ago

TLE from 23 hours ago
0 TIANQI-6
1 46810U 20076D   25260.19426792  .00003868  00000-0  27406-3 0  9996
2 46810  34.9996 280.6512 0011710 284.0499  75.8908 15.04248753267406
Epoch: 2025-09-17T04:39Z
TLE epoch observation values (Epoch: 2025-09-17T04:39:44.748Z)
Latitude
-0.00001°
Longitude
-145.65898°
Altitude
550.759 km
Speed
7.59 km/s
True Right ascension
18h 42m 36s
True Declination
0° 00' 00"
Sunlit
Object was in daylight at epoch
Visualization orbit readout
Latitude
Unknown
Longitude
Unknown
Altitude
Unknown
Speed
Unknown
Apparent Right ascension
Unknown
Apparent Declination
Unknown
Sunlit
N/A
Visualization observer readout
Local Sidereal Time
20:48:25
Azimuth
Unknown
Elevation
Unknown
Doppler factor
Unknown
Orbital elements
Apogee altitude
565.157 km
Perigee altitude
548.915 km
Semi-major axis
6,935.173 km
Eccentricity
0.00117
Inclination
34.9996°
RAAN
280.6512°
Arg. of periapsis
284.0499°
True anomaly
76.02099°
Mean anomaly
75.8908°
Eccentric anomaly
75.95589°
Mean motion
3.758 °/min
Orbital period
95.8 mins
BSTAR
0.00027406
Loading maneuver chart data...
Computing Atmospheric mass density...
Loading historical data...
Loading historical data...
Loading historical data...
Loading historical data...
Loading historical data...
Loading historical data...
Loading historical data...
Other satellites on launch #76 in the year 2020 (2020-10-26 UTC)

Documentation

Showing up to 5 results
|